This is the latest recevied weather packets stored in our database for station/object RA1AMO-10. If no packets are shown the sender has not sent any weather packets the latest 10 day(s).
| Time | Temp. | Humidity | Pressure | Rain* | Wind** | Luminosity | Snow |
|---|---|---|---|---|---|---|---|
| 1777393887 | 3.33° C | 56% | 1012.4 hPa | - | - | - | - |
| 1777392987 | 3.33° C | 57% | 1012.3 hPa | - | - | - | - |
| 1777392087 | 2.78° C | 57% | 1012.3 hPa | - | - | - | - |
| 1777391187 | 2.78° C | 58% | 1012 hPa | - | - | - | - |
| 1777390287 | 2.78° C | 61% | 1012.1 hPa | - | - | - | - |
| 1777389386 | 2.78° C | 64% | 1012.1 hPa | - | - | - | - |
| 1777388486 | 2.22° C | 67% | 1012.1 hPa | - | - | - | - |
| 1777387586 | 2.22° C | 66% | 1012 hPa | - | - | - | - |
| 1777386686 | 2.22° C | 63% | 1011.9 hPa | - | - | - | - |
| 1777385786 | 2.78° C | 57% | 1011.7 hPa | - | - | - | - |
| 1777384886 | 3.33° C | 53% | 1011.5 hPa | - | - | - | - |
| 1777383985 | 3.33° C | 50% | 1011.1 hPa | - | - | - | - |
| 1777383085 | 3.33° C | 50% | 1010.8 hPa | - | - | - | - |
| 1777382185 | 3.33° C | 49% | 1010.8 hPa | - | - | - | - |
| 1777381285 | 3.33° C | 49% | 1010.8 hPa | - | - | - | - |
| 1777380385 | 3.33° C | 51% | 1010.4 hPa | - | - | - | - |
| 1777379485 | 3.33° C | 52% | 1010.4 hPa | - | - | - | - |
| 1777378585 | 3.33° C | 50% | 1010.2 hPa | - | - | - | - |
| 1777377684 | 3.33° C | 52% | 1009.8 hPa | - | - | - | - |
| 1777376785 | 2.78° C | 53% | 1009.9 hPa | - | - | - | - |
| 1777375884 | 2.78° C | 54% | 1009.7 hPa | - | - | - | - |
| 1777374984 | 2.78° C | 56% | 1009.8 hPa | - | - | - | - |
| 1777374084 | 2.78° C | 55% | 1009.7 hPa | - | - | - | - |
| 1777373183 | 2.78° C | 53% | 1009.4 hPa | - | - | - | - |
| 1777372284 | 2.78° C | 52% | 1009 hPa | - | - | - | - |
* Rain since midnight (hover to see other rain measurements)
** Current wind speed in m/s (hover to see current wind gust speed)